Wind_Speed
36 37 38 39 35 33 33 35 35 35 34 33 32 28 29 32 34 36 38 37 36 37 37 39 38 37 37 39 39 37 34 35 40 42 45 39 37 38
37 37 38 35 33 32 34 34 34 30 27 27 31 34 38 40 39 40 41 41 41 40 40 40 41 42 39 39 39 37 36 36 35 38 40 38 45 44
33 32 27 24 23 25 27 27 29 28 27 26 31 32 37 41 44 45 46 45 44 44 43 43 44 43 44 44 43 41 43 38 37 38 44 47 43 44
27 20 19 20 23 25 28 29 28 30 29 21 12 18 23 36 45 45 46 48 48 46 48 49 48 48 50 50 53 53 50 49 51 52 51 48 51 55
17 13 14 13 14 13 19 24 23 22 20 17 26 26 28 28 39 44 44 46 49 50 50 49 50 52 54 55 53 55 58 57 54 54 55 53 49 51
9 8 15 12 16 12 13 13 18 17 21 18 32 32 31 38 37 39 41 46 45 47 51 53 57 57 58 58 59 59 60 61 58 57 57 59 59 59
23 13 19 25 23 29 22 21 10 10 22 28 31 31 32 32 34 35 39 41 49 53 55 57 59 57 57 56 55 56 59 58 62 63 62 65 66 66
33 28 26 30 34 31 29 28 23 24 29 29 30 36 32 36 36 40 37 43 47 49 53 53 53 54 57 57 55 52 50 53 55 55 59 63 69 69
36 33 33 35 34 32 32 28 34 38 35 38 39 37 40 38 40 42 43 47 49 51 53 52 59 63 57 53 47 43 44 47 49 49 51 55 59 63
41 47 41 45 39 35 31 41 37 46 41 43 45 46 43 43 45 46 46 49 47 45 48 52 56 56 54 52 51 48 45 44 45 48 47 49 55 60
49 48 49 49 50 47 44 45 45 45 44 49 51 49 52 45 47 47 48 48 48 47 50 53 54 53 50 49 52 49 46 43 44 44 45 47 52 57
55 52 51 54 54 48 46 50 49 52 57 57 53 53 55 51 52 48 51 50 51 51 55 55 52 48 46 46 47 47 45 41 41 41 41 43 48 55
62 60 54 54 52 47 52 53 57 58 60 64 60 63 59 57 56 54 56 53 53 56 57 55 57 47 45 43 40 40 41 39 37 38 38 40 44 49
66 62 59 53 55 60 62 65 68 68 69 68 67 66 62 61 59 59 58 60 60 59 60 59 60 51 44 45 42 38 36 34 35 34 34 35 41 46
70 63 60 56 62 68 72 74 75 69 68 72 64 65 66 64 64 65 65 65 61 61 63 65 63 54 46 43 43 43 39 34 33 35 34 34 38 44
71 68 65 68 73 79 80 76 73 71 71 68 66 70 68 68 67 70 69 67 68 69 66 63 60 54 48 47 47 45 42 39 35 35 36 36 36 41
72 72 76 81 87 81 78 72 71 74 75 75 75 72 73 74 74 74 74 77 79 75 68 63 59 56 53 50 50 50 47 45 41 37 37 39 39 41
82 82 85 87 85 80 80 82 76 77 78 78 75 71 77 80 83 80 81 82 78 78 72 67 64 59 57 57 54 54 52 51 47 45 42 42 44 44
89 85 85 80 81 82 80 80 81 78 79 79 82 86 87 86 88 88 84 82 82 81 77 72 67 64 60 62 61 58 58 58 51 48 46 46 47 46
87 89 85 79 81 83 86 90 91 92 92 90 90 94 95 92 92 91 89 87 84 80 78 75 74 72 69 70 69 68 65 61 56 55 53 51 52 52
88 91 93 93 91 87 90 89 90 92 95 97 99 100 100 100 96 91 89 88 86 86 87 86 83 81 78 76 72 72 67 62 60 59 57 55 57 58
93 92 93 91 91 96 100 101 97 99 99 99 98 95 94 94 94 95 96 96 95 94 92 88 88 83 83 80 77 76 73 69 64 61 60 60 61 63
88 89 91 96 100 100 98 97 95 96 95 96 99 100 100 101 102 101 101 99 100 98 98 94 91 88 92 89 84 76 76 74 67 63 62 63 63 65
Wind_Direction
269 273 280 285 284 282 279 284 283 284 288 290 284 289 293 293 289 286 289 289 293 286 282 282 281 282 286 286 281 275 265 261 249 243 248 255 258 249
270 274 277 278 279 279 281 281 283 284 286 285 285 286 289 287 285 285 284 284 288 289 289 289 287 285 282 285 276 273 264 254 249 253 251 247 245 245
276 281 286 286 284 280 281 284 284 289 286 284 288 290 291 292 292 291 290 288 285 284 285 287 285 285 280 276 278 272 274 262 254 254 248 248 252 250
273 276 279 282 282 284 283 281 285 286 283 280 307 306 311 295 294 294 294 291 288 286 285 284 280 277 276 277 278 275 275 275 271 268 262 257 251 242
271 279 301 297 284 280 283 290 293 293 294 301 312 298 307 304 301 298 295 292 287 285 284 283 282 281 280 280 279 276 275 270 265 264 264 261 256 249
251 271 267 298 287 272 277 266 289 297 294 274 320 305 305 301 303 303 298 294 293 290 286 286 285 282 280 279 277 273 273 269 263 258 255 256 253 252
264 251 273 281 288 279 282 270 280 321 310 303 299 302 303 306 298 299 292 293 295 294 291 288 287 285 283 280 277 275 271 264 263 261 255 251 247 250
261 245 274 281 273 292 296 274 259 290 310 320 296 320 302 300 301 303 306 296 296 295 292 290 290 293 294 288 281 278 276 271 265 259 253 250 247 249
252 262 269 279 264 286 273 260 274 288 288 307 306 313 311 311 307 294 292 292 289 289 291 298 299 302 299 291 290 287 283 276 269 263 256 249 247 244
271 266 275 293 271 289 259 283 280 279 281 303 306 314 313 309 305 294 301 293 291 294 299 300 304 305 299 294 291 290 289 283 275 270 259 249 243 240
265 270 280 284 280 281 284 285 279 291 296 294 303 303 306 298 301 298 290 291 290 295 299 303 308 306 297 293 294 291 291 284 277 270 261 252 244 240
269 276 278 277 283 282 295 292 296 291 285 300 298 297 298 293 289 295 289 288 293 293 299 304 306 304 295 293 295 295 293 286 278 270 263 257 247 239
272 274 271 276 280 282 292 296 287 293 295 295 293 287 292 287 285 288 285 286 291 291 298 300 305 304 295 294 299 299 295 288 280 272 265 259 252 241
269 270 273 273 278 287 289 294 291 288 292 294 291 283 288 292 287 280 286 288 290 289 294 298 300 301 298 293 298 298 295 295 289 281 270 262 255 246
267 269 273 276 281 286 292 295 294 287 288 294 291 288 283 286 287 285 284 288 286 288 292 296 298 295 291 292 290 296 294 295 295 291 280 266 257 250
264 268 272 280 281 287 289 289 284 286 287 288 285 286 286 284 282 286 284 284 286 290 291 292 292 288 286 287 286 288 288 291 292 288 282 273 260 250
262 269 272 278 284 287 285 286 284 286 289 287 283 285 278 280 280 281 283 286 288 289 287 287 287 285 282 280 278 282 285 285 286 283 279 273 261 254
262 268 271 278 281 282 282 287 287 287 288 287 284 279 281 282 283 283 283 285 286 285 285 284 282 281 278 277 276 276 276 279 281 280 275 269 264 254
266 271 274 275 277 281 283 283 282 281 279 282 282 285 287 284 285 286 284 283 283 285 282 278 275 273 274 275 276 273 272 276 277 273 269 266 264 259
267 272 276 275 276 276 279 281 282 280 282 286 285 287 288 285 284 283 281 281 280 280 279 278 277 277 275 272 271 269 268 269 267 267 264 260 260 259
268 270 272 273 274 274 283 284 284 284 284 284 284 284 282 281 283 281 280 280 279 279 278 277 276 274 272 270 269 268 266 264 263 262 260 259 257 255
265 269 272 274 277 279 283 283 283 282 282 282 283 284 284 283 283 283 282 281 280 278 277 275 275 273 271 269 267 266 266 263 261 257 255 252 252 253
272 274 275 276 279 281 283 284 285 285 286 286 286 285 285 284 284 283 282 280 280 277 276 274 272 270 270 268 263 262 261 260 259 256 255 253 250 250
Height
10955 10954 10954 10953 10952 10950 10949 10950 10951 10950 10946 10943 10941 10939 10937 10935 10934 10933 10933 10931 10930 10929 10929 10928 10928 10927 10926 10926 10927 10927 10929 10931 10931 10932 10932 10933 10937 10938
10944 10944 10944 10942 10941 10940 10940 10939 10938 10938 10938 10937 10936 10933 10929 10923 10920 10917 10916 10915 10914 10915 10914 10914 10913 10913 10912 10911 10911 10913 10915 10916 10918 10919 10919 10920 10923 10925
10936 10934 10933 10932 10931 10931 10931 10931 10929 10929 10930 10929 10926 10923 10919 10915 10911 10910 10907 10905 10903 10902 10900 10900 10898 10898 10898 10897 10897 10897 10899 10902 10904 10905 10906 10907 10908 10910
10928 10925 10924 10924 10923 10922 10922 10922 10923 10922 10920 10920 10919 10917 10912 10904 10900 10898 10897 10894 10892 10890 10887 10886 10883 10883 10882 10882 10882 10881 10880 10880 10882 10883 10888 10890 10892 10894
10921 10921 10920 10918 10917 10917 10913 10912 10911 10911 10912 10912 10908 10904 10899 10895 10891 10887 10885 10881 10878 10876 10874 10872 10869 10866 10864 10862 10862 10862 10861 10861 10862 10862 10864 10867 10871 10874
10917 10915 10916 10914 10912 10911 10908 10907 10904 10904 10902 10900 10897 10894 10890 10885 10881 10877 10874 10867 10864 10861 10858 10855 10852 10848 10845 10842 10841 10839 10838 10838 10839 10841 10843 10845 10849 10852
10909 10908 10909 10909 10907 10903 10902 10900 10897 10896 10896 10891 10888 10884 10879 10875 10871 10866 10862 10857 10851 10847 10842 10839 10834 10830 10825 10820 10817 10815 10814 10815 10814 10815 10819 10822 10825 10830
10900 10899 10897 10900 10897 10894 10892 10888 10886 10885 10882 10878 10875 10872 10870 10864 10858 10852 10845 10843 10836 10831 10827 10823 10819 10813 10807 10800 10796 10792 10790 10789 10789 10789 10791 10794 10800 10806
10890 10889 10888 10888 10886 10883 10880 10879 10875 10871 10869 10862 10860 10856 10853 10848 10844 10837 10831 10825 10820 10814 10809 10804 10798 10792 10785 10780 10776 10772 10770 10769 10768 10769 10769 10771 10776 10781
10881 10879 10876 10875 10875 10872 10871 10869 10864 10859 10853 10849 10844 10840 10837 10834 10829 10824 10818 10810 10804 10800 10792 10786 10782 10775 10769 10764 10760 10757 10752 10750 10749 10749 10748 10749 10754 10759
10868 10866 10865 10861 10861 10857 10855 10852 10849 10845 10841 10834 10828 10824 10821 10817 10811 10807 10802 10796 10793 10790 10781 10773 10767 10760 10754 10751 10747 10742 10738 10733 10732 10731 10730 10730 10734 10739
10851 10850 10848 10846 10843 10841 10838 10835 10832 10827 10822 10818 10813 10807 10803 10799 10795 10790 10785 10781 10777 10776 10771 10763 10756 10747 10740 10736 10733 10728 10722 10718 10716 10715 10714 10714 10715 10720
10831 10831 10828 10828 10825 10823 10820 10816 10812 10808 10804 10800 10794 10789 10786 10782 10778 10774 10770 10765 10763 10758 10753 10749 10744 10738 10730 10724 10718 10713 10710 10705 10702 10700 10699 10699 10700 10703
10812 10809 10807 10807 10806 10804 10801 10797 10794 10789 10783 10778 10773 10769 10766 10763 10759 10755 10753 10748 10744 10740 10734 10730 10726 10722 10717 10711 10705 10700 10696 10693 10690 10688 10686 10686 10687 10689
10794 10792 10789 10786 10785 10782 10779 10775 10771 10767 10764 10761 10755 10751 10745 10742 10739 10737 10734 10730 10724 10720 10717 10713 10708 10704 10700 10696 10692 10689 10684 10679 10678 10677 10675 10673 10673 10675
10777 10774 10771 10767 10764 10760 10758 10755 10750 10746 10742 10739 10734 10732 10727 10723 10719 10716 10713 10708 10705 10702 10698 10693 10689 10686 10682 10679 10676 10674 10670 10666 10663 10663 10664 10662 10661 10662
10757 10754 10752 10747 10743 10738 10735 10733 10728 10723 10719 10716 10713 10709 10707 10702 10699 10696 10691 10687 10682 10678 10675 10674 10669 10666 10664 10661 10658 10658 10655 10651 10649 10648 10649 10650 10649 10649
10736 10734 10731 10725 10721 10717 10713 10708 10704 10699 10696 10692 10688 10685 10683 10679 10675 10671 10666 10661 10658 10656 10652 10650 10648 10646 10643 10641 10639 10639 10638 10635 10634 10631 10631 10633 10635 10635
10716 10711 10707 10703 10698 10693 10687 10682 10679 10675 10671 10667 10661 10659 10653 10649 10647 10642 10638 10635 10630 10627 10625 10623 10623 10623 10623 10618 10618 10616 10616 10617 10616 10614 10613 10613 10616 10619
10693 10689 10684 10678 10672 10667 10661 10657 10653 10647 10641 10636 10632 10629 10624 10620 10616 10613 10609 10606 10602 10598 10596 10595 10595 10596 10598 10595 10592 10590 10592 10593 10595 10593 10593 10594 10595 10599
10667 10662 10656 10649 10643 10638 10634 10626 10620 10614 10609 10603 10600 10596 10592 10587 10582 10579 10575 10572 10572 10568 10566 10562 10563 10562 10564 10564 10564 10560 10564 10568 10570 10571 10571 10574 10574 10576
10640 10634 10627 10621 10615 10608 10602 10596 10590 10583 10577 10572 10566 10560 10555 10550 10546 10543 10539 10536 10534 10532 10530 10530 10527 10530 10529 10531 10533 10532 10533 10538 10542 10545 10547 10548 10550 10552
10612 10605 10598 10592 10585 10578 10569 10563 10555 10549 10543 10536 10531 10526 10519 10513 10508 10504 10500 10498 10494 10494 10490 10492 10494 10495 10491 10493 10499 10504 10504 10506 10512 10518 10520 10522 10526 10530